Time,TemperatureF,DewpointF,PressureIn,WindDirection,WindDirectionDegrees,WindSpeedMPH,WindSpeedGustMPH,Humidity,HourlyPrecipIn,Conditions,Clouds,dailyrainin,SoftwareType,DateUTC
2013-09-04 00:01:00,57.3,54.1,30.06,SE,135,0.0,0.0,89,0.00,,CLR,0.00,VWS V14.01,2013-09-04 07:01:00,
2013-09-04 00:06:00,57.3,54.1,30.06,SE,135,0.0,0.0,89,0.00,,CLR,0.00,VWS V14.01,2013-09-04 07:06:00,
2013-09-04 00:11:00,57.3,54.1,30.06,SE,135,0.0,0.0,89,0.00,,CLR,0.00,VWS V14.01,2013-09-04 07:11:00,
2013-09-04 00:16:00,57.3,54.1,30.06,SE,135,0.0,0.0,89,0.00,,CLR,0.00,VWS V14.01,2013-09-04 07:16:00,
2013-09-04 00:21:00,57.3,54.1,30.06,SE,135,0.0,0.0,89,0.00,,CLR,0.00,VWS V14.01,2013-09-04 07:21:00,
2013-09-04 00:26:00,57.3,54.1,30.07,SE,135,0.0,0.0,89,0.00,,CLR,0.00,VWS V14.01,2013-09-04 07:26:00,
2013-09-04 00:31:00,57.0,53.8,30.07,SE,135,0.0,0.0,89,0.00,,CLR,0.00,VWS V14.01,2013-09-04 07:31:00,
2013-09-04 00:36:00,57.0,53.8,30.06,SE,135,0.0,0.0,89,0.00,,CLR,0.00,VWS V14.01,2013-09-04 07:36:00,
2013-09-04 00:41:00,57.0,53.8,30.06,SE,135,0.0,0.0,89,0.00,,CLR,0.00,VWS V14.01,2013-09-04 07:41:00,
2013-09-04 00:46:00,57.0,53.5,30.06,SE,135,0.0,0.0,88,0.00,,CLR,0.00,VWS V14.01,2013-09-04 07:46:00,
2013-09-04 00:51:00,56.8,53.3,30.06,SE,135,0.0,0.0,88,0.00,,CLR,0.00,VWS V14.01,2013-09-04 07:51:00,
2013-09-04 00:56:00,56.8,53.6,30.06,SE,135,0.0,0.0,89,0.00,,CLR,0.00,VWS V14.01,2013-09-04 07:56:00,
2013-09-04 01:01:00,56.8,53.6,30.06,SE,135,0.0,0.0,89,0.00,,CLR,0.00,VWS V14.01,2013-09-04 08:01:00,
2013-09-04 01:06:00,56.8,53.6,30.06,SE,135,0.0,0.0,89,0.00,,CLR,0.00,VWS V14.01,2013-09-04 08:06:00,
2013-09-04 01:11:00,56.6,53.4,30.06,SE,135,0.0,0.0,89,0.00,,CLR,0.00,VWS V14.01,2013-09-04 08:11:00,
2013-09-04 01:16:00,56.4,53.2,30.06,SE,135,0.0,0.0,89,0.00,,CLR,0.00,VWS V14.01,2013-09-04 08:16:00,
2013-09-04 01:21:00,56.4,53.2,30.06,SE,135,0.0,0.0,89,0.00,,CLR,0.00,VWS V14.01,2013-09-04 08:21:00,
2013-09-04 01:26:00,56.4,53.2,30.06,SE,135,0.0,0.0,89,0.00,,CLR,0.00,VWS V14.01,2013-09-04 08:26:00,
2013-09-04 01:31:00,56.3,53.1,30.06,SE,135,0.0,0.0,89,0.00,,CLR,0.00,VWS V14.01,2013-09-04 08:31:00,
2013-09-04 01:36:00,56.3,53.1,30.06,SE,135,0.0,0.0,89,0.00,,CLR,0.00,VWS V14.01,2013-09-04 08:36:00,
2013-09-04 01:41:00,56.3,53.1,30.06,SE,135,0.0,0.0,89,0.00,,CLR,0.00,VWS V14.01,2013-09-04 08:41:00,
2013-09-04 01:46:00,56.1,52.9,30.06,SE,135,0.0,0.0,89,0.00,,CLR,0.00,VWS V14.01,2013-09-04 08:46:00,
2013-09-04 01:51:00,56.1,52.9,30.05,SE,135,0.0,0.0,89,0.00,,CLR,0.00,VWS V14.01,2013-09-04 08:51:00,
2013-09-04 01:57:00,55.9,52.7,30.05,SE,135,0.0,0.0,89,0.00,,CLR,0.00,VWS V14.01,2013-09-04 08:57:00,
2013-09-04 02:02:00,55.9,52.7,30.06,SE,135,0.0,0.0,89,0.00,,CLR,0.00,VWS V14.01,2013-09-04 09:02:00,
2013-09-04 02:07:00,55.9,52.7,30.05,SE,135,0.0,0.0,89,0.00,,CLR,0.00,VWS V14.01,2013-09-04 09:07:00,
2013-09-04 02:12:00,55.9,52.7,30.05,SE,135,0.0,0.0,89,0.00,,CLR,0.00,VWS V14.01,2013-09-04 09:12:00,
2013-09-04 02:17:00,55.9,52.7,30.05,SE,135,0.0,0.0,89,0.00,,CLR,0.00,VWS V14.01,2013-09-04 09:17:00,
2013-09-04 02:22:00,56.1,52.9,30.06,SE,135,0.0,0.0,89,0.00,,CLR,0.00,VWS V14.01,2013-09-04 09:22:00,
2013-09-04 02:27:00,56.1,52.9,30.05,SE,135,0.0,0.0,89,0.00,,CLR,0.00,VWS V14.01,2013-09-04 09:27:00,
2013-09-04 02:32:00,56.1,52.9,30.05,SE,135,0.0,0.0,89,0.00,,CLR,0.00,VWS V14.01,2013-09-04 09:32:00,
2013-09-04 02:37:00,56.3,53.1,30.05,SE,135,0.0,0.0,89,0.00,,CLR,0.00,VWS V14.01,2013-09-04 09:37:00,
2013-09-04 02:42:00,56.3,53.1,30.05,SE,135,0.0,0.0,89,0.00,,CLR,0.00,VWS V14.01,2013-09-04 09:42:00,
2013-09-04 02:47:00,56.3,53.4,30.05,SE,135,0.0,0.0,90,0.00,,CLR,0.00,VWS V14.01,2013-09-04 09:47:00,
2013-09-04 02:52:00,56.4,53.5,30.05,SE,135,0.0,0.0,90,0.00,,CLR,0.00,VWS V14.01,2013-09-04 09:52:00,
2013-09-04 02:57:00,56.3,53.4,30.05,SE,135,0.0,0.0,90,0.00,,CLR,0.00,VWS V14.01,2013-09-04 09:57:00,
2013-09-04 03:02:00,56.3,53.4,30.05,SE,135,0.0,0.0,90,0.00,,CLR,0.00,VWS V14.01,2013-09-04 10:02:00,
2013-09-04 03:07:00,56.3,53.1,30.05,SE,135,0.0,0.0,89,0.00,,CLR,0.00,VWS V14.01,2013-09-04 10:07:00,
2013-09-04 03:12:00,56.3,53.4,30.05,SE,135,0.0,0.0,90,0.00,,CLR,0.00,VWS V14.01,2013-09-04 10:12:00,
2013-09-04 03:17:00,56.3,53.4,30.06,SE,135,0.0,0.0,90,0.00,,CLR,0.00,VWS V14.01,2013-09-04 10:17:00,
2013-09-04 03:22:00,56.4,53.5,30.06,SE,135,0.0,0.0,90,0.00,,CLR,0.00,VWS V14.01,2013-09-04 10:22:00,
2013-09-04 03:27:00,56.3,53.4,30.06,SE,135,0.0,0.0,90,0.00,,CLR,0.00,VWS V14.01,2013-09-04 10:27:00,
2013-09-04 03:32:00,56.3,53.1,30.06,SE,135,0.0,0.0,89,0.00,,CLR,0.00,VWS V14.01,2013-09-04 10:32:00,
2013-09-04 03:37:00,56.3,53.1,30.06,SE,135,0.0,0.0,89,0.00,,CLR,0.00,VWS V14.01,2013-09-04 10:37:00,
2013-09-04 03:42:00,56.3,53.1,30.06,SE,135,0.0,0.0,89,0.00,,CLR,0.00,VWS V14.01,2013-09-04 10:42:00,
2013-09-04 03:47:00,56.3,53.1,30.05,SE,135,0.0,0.0,89,0.00,,CLR,0.00,VWS V14.01,2013-09-04 10:47:00,
2013-09-04 03:52:00,56.1,52.9,30.05,SE,135,0.0,0.0,89,0.00,,CLR,0.00,VWS V14.01,2013-09-04 10:52:00,
2013-09-04 03:57:00,56.3,53.1,30.05,SE,135,0.0,0.0,89,0.00,,CLR,0.00,VWS V14.01,2013-09-04 10:57:00,
2013-09-04 04:02:00,56.3,53.4,30.05,SE,135,0.0,0.0,90,0.00,,CLR,0.00,VWS V14.01,2013-09-04 11:02:00,
2013-09-04 04:07:00,56.3,53.1,30.05,SE,135,0.0,0.0,89,0.00,,CLR,0.00,VWS V14.01,2013-09-04 11:07:00,
2013-09-04 04:12:00,56.1,53.2,30.06,SE,135,0.0,0.0,90,0.00,,CLR,0.00,VWS V14.01,2013-09-04 11:12:00,
2013-09-04 04:17:00,56.1,53.2,30.06,SE,135,0.0,0.0,90,0.00,,CLR,0.00,VWS V14.01,2013-09-04 11:17:00,
2013-09-04 04:22:00,56.1,52.9,30.05,SE,135,0.0,0.0,89,0.00,,CLR,0.00,VWS V14.01,2013-09-04 11:22:00,
2013-09-04 04:28:00,55.9,52.7,30.05,SE,135,0.0,0.0,89,0.00,,CLR,0.00,VWS V14.01,2013-09-04 11:28:00,
2013-09-04 04:33:00,55.9,52.7,30.05,SE,135,0.0,0.0,89,0.00,,CLR,0.00,VWS V14.01,2013-09-04 11:33:00,
2013-09-04 04:38:00,55.9,53.0,30.05,SE,135,0.0,0.0,90,0.00,,CLR,0.00,VWS V14.01,2013-09-04 11:38:00,
2013-09-04 04:43:00,55.9,53.0,30.06,SE,135,0.0,0.0,90,0.00,,CLR,0.00,VWS V14.01,2013-09-04 11:43:00,
2013-09-04 04:48:00,55.9,53.0,30.05,SE,135,0.0,0.0,90,0.00,,CLR,0.00,VWS V14.01,2013-09-04 11:48:00,
2013-09-04 04:53:00,55.9,53.0,30.05,SE,135,0.0,0.0,90,0.00,,CLR,0.00,VWS V14.01,2013-09-04 11:53:00,
2013-09-04 04:58:00,55.7,52.8,30.05,SE,135,0.0,0.0,90,0.00,,CLR,0.00,VWS V14.01,2013-09-04 11:58:00,
2013-09-04 05:03:00,55.7,52.8,30.05,SE,135,0.0,0.0,90,0.00,,CLR,0.00,VWS V14.01,2013-09-04 12:03:00,
2013-09-04 05:08:00,55.7,52.8,30.05,SE,135,0.0,0.0,90,0.00,,CLR,0.00,VWS V14.01,2013-09-04 12:08:00,
2013-09-04 05:13:00,55.5,52.6,30.05,SE,135,0.0,0.0,90,0.00,,CLR,0.00,VWS V14.01,2013-09-04 12:13:00,
2013-09-04 05:18:00,55.5,52.6,30.05,SE,135,0.0,0.0,90,0.00,,CLR,0.00,VWS V14.01,2013-09-04 12:18:00,
2013-09-04 05:23:00,55.5,52.6,30.05,SE,135,0.0,0.0,90,0.00,,CLR,0.00,VWS V14.01,2013-09-04 12:23:00,
2013-09-04 05:28:00,55.4,52.5,30.05,SE,135,0.0,0.0,90,0.00,,CLR,0.00,VWS V14.01,2013-09-04 12:28:00,
2013-09-04 05:33:00,55.5,52.6,30.04,SE,135,0.0,0.0,90,0.00,,CLR,0.00,VWS V14.01,2013-09-04 12:33:00,
2013-09-04 05:38:00,55.5,52.6,30.04,SE,135,0.0,0.0,90,0.00,,CLR,0.00,VWS V14.01,2013-09-04 12:38:00,
2013-09-04 05:43:00,55.5,52.6,30.04,SE,135,0.0,0.0,90,0.00,,CLR,0.00,VWS V14.01,2013-09-04 12:43:00,
2013-09-04 05:48:00,55.5,52.6,30.05,SE,135,0.0,0.0,90,0.00,,CLR,0.00,VWS V14.01,2013-09-04 12:48:00,
2013-09-04 05:53:00,55.5,52.6,30.04,SE,135,0.0,0.0,90,0.00,,CLR,0.00,VWS V14.01,2013-09-04 12:53:00,
2013-09-04 05:58:00,55.4,52.5,30.04,SE,135,0.0,0.0,90,0.00,,CLR,0.00,VWS V14.01,2013-09-04 12:58:00,
2013-09-04 06:03:00,55.4,52.5,30.04,SE,135,0.0,0.0,90,0.00,,BKN120,0.00,VWS V14.01,2013-09-04 13:03:00,
2013-09-04 06:08:00,55.4,52.5,30.04,SE,135,0.0,0.0,90,0.00,,BKN120,0.00,VWS V14.01,2013-09-04 13:08:00,
2013-09-04 06:13:00,55.5,52.6,30.04,SE,135,0.0,0.0,90,0.00,,BKN120,0.00,VWS V14.01,2013-09-04 13:13:00,
2013-09-04 06:18:00,55.5,52.6,30.04,SE,135,0.0,0.0,90,0.00,,BKN120,0.00,VWS V14.01,2013-09-04 13:18:00,
2013-09-04 06:23:00,55.5,52.6,30.05,SE,135,0.0,0.0,90,0.00,,BKN120,0.00,VWS V14.01,2013-09-04 13:23:00,
2013-09-04 06:28:00,55.5,52.6,30.05,SE,135,0.0,0.0,90,0.00,,BKN120,0.00,VWS V14.01,2013-09-04 13:28:00,
2013-09-04 06:33:00,55.7,52.8,30.04,SE,135,0.0,0.0,90,0.00,,BKN120,0.00,VWS V14.01,2013-09-04 13:33:00,
2013-09-04 06:38:00,55.7,52.8,30.04,SE,135,0.0,0.0,90,0.00,,BKN120,0.00,VWS V14.01,2013-09-04 13:38:00,
2013-09-04 06:43:00,55.7,52.8,30.05,SE,135,0.0,0.0,90,0.00,,BKN120,0.00,VWS V14.01,2013-09-04 13:43:00,
2013-09-04 06:48:00,55.9,53.0,30.05,SE,135,0.0,0.0,90,0.00,,BKN120,0.00,VWS V14.01,2013-09-04 13:48:00,
2013-09-04 06:53:00,55.9,53.0,30.05,SE,135,0.0,0.0,90,0.00,,BKN120,0.00,VWS V14.01,2013-09-04 13:53:00,
2013-09-04 06:58:00,55.9,53.0,30.05,SE,135,0.0,0.0,90,0.00,,BKN120,0.00,VWS V14.01,2013-09-04 13:58:00,
2013-09-04 07:03:00,55.9,53.0,30.05,SE,135,0.0,0.0,90,0.00,,BKN120,0.00,VWS V14.01,2013-09-04 14:03:00,
2013-09-04 07:08:00,55.9,53.0,30.05,SE,135,0.0,0.0,90,0.00,,BKN120,0.00,VWS V14.01,2013-09-04 14:08:00,
2013-09-04 07:14:00,55.9,53.0,30.05,SE,135,0.0,0.0,90,0.00,,BKN120,0.00,VWS V14.01,2013-09-04 14:14:00,
2013-09-04 07:19:00,55.9,53.0,30.05,SE,135,0.0,0.0,90,0.00,,BKN120,0.00,VWS V14.01,2013-09-04 14:19:00,
2013-09-04 07:24:00,55.9,53.0,30.05,SE,135,0.0,0.0,90,0.00,,BKN120,0.00,VWS V14.01,2013-09-04 14:24:00,
2013-09-04 07:29:00,55.9,53.0,30.05,SE,135,0.0,0.0,90,0.00,,BKN120,0.00,VWS V14.01,2013-09-04 14:29:00,
2013-09-04 07:34:00,55.9,53.0,30.05,SE,135,0.0,0.0,90,0.00,,BKN120,0.00,VWS V14.01,2013-09-04 14:34:00,
2013-09-04 07:39:00,55.9,53.0,30.05,SE,135,0.0,0.0,90,0.00,,BKN120,0.00,VWS V14.01,2013-09-04 14:39:00,
2013-09-04 07:44:00,55.9,53.0,30.05,SE,135,0.0,0.0,90,0.00,,BKN120,0.00,VWS V14.01,2013-09-04 14:44:00,
2013-09-04 07:49:00,55.9,53.0,30.05,SE,135,0.0,0.0,90,0.00,,BKN120,0.00,VWS V14.01,2013-09-04 14:49:00,
2013-09-04 07:54:00,55.9,53.0,30.05,SE,135,0.0,0.0,90,0.00,,BKN120,0.00,VWS V14.01,2013-09-04 14:54:00,
2013-09-04 07:59:00,55.9,53.0,30.05,SE,135,0.0,0.0,90,0.00,,BKN120,0.00,VWS V14.01,2013-09-04 14:59:00,
2013-09-04 08:04:00,55.9,53.0,30.05,SE,135,0.0,0.0,90,0.00,,BKN100,0.00,VWS V14.01,2013-09-04 15:04:00,
2013-09-04 08:09:00,55.9,53.0,30.05,SE,135,0.0,0.0,90,0.00,,BKN100,0.00,VWS V14.01,2013-09-04 15:09:00,
2013-09-04 08:14:00,55.9,53.0,30.05,SE,135,0.0,0.0,90,0.00,,BKN100,0.00,VWS V14.01,2013-09-04 15:14:00,
2013-09-04 08:19:00,55.9,53.0,30.05,SE,135,0.0,0.0,90,0.00,,BKN100,0.00,VWS V14.01,2013-09-04 15:19:00,
2013-09-04 08:24:00,55.9,53.0,30.05,SE,135,0.0,0.0,90,0.00,,BKN100,0.00,VWS V14.01,2013-09-04 15:24:00,
2013-09-04 08:29:00,55.9,53.0,30.05,SE,135,0.0,0.0,90,0.00,,BKN100,0.00,VWS V14.01,2013-09-04 15:29:00,
2013-09-04 08:34:00,55.9,53.0,30.05,SE,135,0.0,0.0,90,0.00,,BKN100,0.00,VWS V14.01,2013-09-04 15:34:00,
2013-09-04 08:39:00,55.9,53.0,30.05,SE,135,0.0,0.0,90,0.00,,BKN100,0.00,VWS V14.01,2013-09-04 15:39:00,
2013-09-04 08:44:00,55.9,53.0,30.05,SE,135,0.0,0.0,90,0.00,,BKN100,0.00,VWS V14.01,2013-09-04 15:44:00,
2013-09-04 08:49:00,55.9,53.0,30.05,SE,135,0.0,0.0,90,0.00,,BKN100,0.00,VWS V14.01,2013-09-04 15:49:00,
2013-09-04 08:54:00,55.9,53.0,30.05,SE,135,0.0,0.0,90,0.00,,BKN100,0.00,VWS V14.01,2013-09-04 15:54:00,
2013-09-04 08:59:00,55.9,53.0,30.05,SE,135,0.0,0.0,90,0.00,,BKN100,0.00,VWS V14.01,2013-09-04 15:59:00,
2013-09-04 09:04:00,55.9,53.0,30.05,SE,135,0.0,0.0,90,0.00,,BKN100,0.00,VWS V14.01,2013-09-04 16:04:00,
2013-09-04 09:09:00,55.9,53.0,30.05,SE,135,0.0,0.0,90,0.00,,BKN100,0.00,VWS V14.01,2013-09-04 16:09:00,
2013-09-04 09:14:00,55.9,53.0,30.05,SE,135,0.0,0.0,90,0.00,,BKN100,0.00,VWS V14.01,2013-09-04 16:14:00,
2013-09-04 09:19:00,55.9,53.0,30.05,SE,135,0.0,0.0,90,0.00,,BKN100,0.00,VWS V14.01,2013-09-04 16:19:00,
2013-09-04 09:24:00,55.9,53.0,30.05,SE,135,0.0,0.0,90,0.00,,BKN100,0.00,VWS V14.01,2013-09-04 16:24:00,
2013-09-04 09:29:00,55.9,53.0,30.05,SE,135,0.0,0.0,90,0.00,,BKN100,0.00,VWS V14.01,2013-09-04 16:29:00,
2013-09-04 09:34:00,55.9,53.0,30.05,SE,135,0.0,0.0,90,0.00,,BKN100,0.00,VWS V14.01,2013-09-04 16:34:00,
2013-09-04 09:40:00,55.9,53.0,30.05,SE,135,0.0,0.0,90,0.00,,BKN100,0.00,VWS V14.01,2013-09-04 16:40:00,
2013-09-04 09:45:00,55.9,53.0,30.05,SE,135,0.0,0.0,90,0.00,,BKN100,0.00,VWS V14.01,2013-09-04 16:45:00,
2013-09-04 09:50:00,55.9,53.0,30.05,SE,135,0.0,0.0,90,0.00,,BKN100,0.00,VWS V14.01,2013-09-04 16:50:00,
2013-09-04 09:55:00,55.9,53.0,30.05,SE,135,0.0,0.0,90,0.00,,BKN100,0.00,VWS V14.01,2013-09-04 16:55:00,
2013-09-04 10:00:00,55.9,53.0,30.05,SE,135,0.0,0.0,90,0.00,,BKN100,0.00,VWS V14.01,2013-09-04 17:00:00,
2013-09-04 10:05:00,55.9,53.0,30.05,SE,135,0.0,0.0,90,0.00,,OVC100,0.00,VWS V14.01,2013-09-04 17:05:00,
2013-09-04 10:10:00,55.9,53.0,30.05,SE,135,0.0,0.0,90,0.00,,OVC100,0.00,VWS V14.01,2013-09-04 17:10:00,
2013-09-04 10:15:00,55.9,53.0,30.05,SE,135,0.0,0.0,90,0.00,,OVC100,0.00,VWS V14.01,2013-09-04 17:15:00,
2013-09-04 10:20:00,55.9,53.0,30.05,SE,135,0.0,0.0,90,0.00,,OVC100,0.00,VWS V14.01,2013-09-04 17:20:00,
2013-09-04 10:25:00,55.9,53.0,30.05,SE,135,0.0,0.0,90,0.00,,OVC100,0.00,VWS V14.01,2013-09-04 17:25:00,
2013-09-04 10:30:00,55.9,53.0,30.05,SE,135,0.0,0.0,90,0.00,,OVC100,0.00,VWS V14.01,2013-09-04 17:30:00,
2013-09-04 10:35:00,55.9,53.0,30.05,SE,135,0.0,0.0,90,0.00,,OVC100,0.00,VWS V14.01,2013-09-04 17:35:00,
2013-09-04 10:40:00,55.9,53.0,30.05,SE,135,0.0,0.0,90,0.00,,OVC100,0.00,VWS V14.01,2013-09-04 17:40:00,
2013-09-04 10:45:00,55.9,53.0,30.05,SE,135,0.0,0.0,90,0.00,,OVC100,0.00,VWS V14.01,2013-09-04 17:45:00,
2013-09-04 10:50:00,55.9,53.0,30.05,SE,135,0.0,0.0,90,0.00,,OVC100,0.00,VWS V14.01,2013-09-04 17:50:00,
2013-09-04 10:55:00,55.9,53.0,30.05,SE,135,0.0,0.0,90,0.00,,OVC100,0.00,VWS V14.01,2013-09-04 17:55:00,
2013-09-04 11:00:00,55.9,53.0,30.05,SE,135,0.0,0.0,90,0.00,,OVC100,0.00,VWS V14.01,2013-09-04 18:00:00,
2013-09-04 11:05:00,55.9,53.0,30.05,SE,135,0.0,0.0,90,0.00,,OVC100,0.00,VWS V14.01,2013-09-04 18:05:00,
2013-09-04 11:10:00,55.9,53.0,30.05,SE,135,0.0,0.0,90,0.00,,OVC100,0.00,VWS V14.01,2013-09-04 18:10:00,
2013-09-04 11:15:00,55.9,53.0,30.05,SE,135,0.0,0.0,90,0.00,,OVC100,0.00,VWS V14.01,2013-09-04 18:15:00,
2013-09-04 11:20:00,55.9,53.0,30.05,SE,135,0.0,0.0,90,0.00,,OVC100,0.00,VWS V14.01,2013-09-04 18:20:00,
2013-09-04 11:25:00,55.9,53.0,30.05,SE,135,0.0,0.0,90,0.00,,OVC100,0.00,VWS V14.01,2013-09-04 18:25:00,
2013-09-04 11:30:00,55.9,53.0,30.05,SE,135,0.0,0.0,90,0.00,,OVC100,0.00,VWS V14.01,2013-09-04 18:30:00,
2013-09-04 11:35:00,55.9,53.0,30.05,SE,135,0.0,0.0,90,0.00,,OVC100,0.00,VWS V14.01,2013-09-04 18:35:00,
2013-09-04 11:40:00,55.9,53.0,30.05,SE,135,0.0,0.0,90,0.00,,OVC100,0.00,VWS V14.01,2013-09-04 18:40:00,
2013-09-04 11:45:00,55.9,53.0,30.05,SE,135,0.0,0.0,90,0.00,,OVC100,0.00,VWS V14.01,2013-09-04 18:45:00,
2013-09-04 11:50:00,55.9,53.0,30.05,SE,135,0.0,0.0,90,0.00,,OVC100,0.00,VWS V14.01,2013-09-04 18:50:00,
2013-09-04 11:55:00,55.9,53.0,30.05,SE,135,0.0,0.0,90,0.00,,OVC100,0.00,VWS V14.01,2013-09-04 18:55:00,
2013-09-04 12:00:00,65.8,61.2,30.07,SE,135,0.0,0.0,85,0.02,,BKN013,0.02,VWS V14.01,2013-09-04 19:00:00,
2013-09-04 12:05:00,66.0,61.0,30.07,SE,135,0.0,0.0,84,0.02,,BKN013,0.02,VWS V14.01,2013-09-04 19:05:00,
2013-09-04 12:10:00,66.2,61.2,30.07,SE,135,0.0,0.0,84,0.02,,BKN013,0.02,VWS V14.01,2013-09-04 19:10:00,
2013-09-04 12:15:00,66.3,61.3,30.07,SE,135,0.0,0.0,84,0.02,,BKN013,0.02,VWS V14.01,2013-09-04 19:15:00,
2013-09-04 12:20:00,66.3,61.3,30.07,SE,135,0.0,0.0,84,0.02,,BKN013,0.02,VWS V14.01,2013-09-04 19:20:00,
2013-09-04 12:25:00,66.0,61.0,30.07,SE,135,0.0,0.0,84,0.02,,BKN013,0.02,VWS V14.01,2013-09-04 19:25:00,
2013-09-04 12:30:00,66.0,61.0,30.07,SE,135,0.0,0.0,84,0.02,,BKN013,0.02,VWS V14.01,2013-09-04 19:30:00,
2013-09-04 12:35:00,66.3,61.3,30.07,SE,135,0.0,0.0,84,0.02,,BKN013,0.02,VWS V14.01,2013-09-04 19:35:00,
2013-09-04 12:40:00,66.3,61.0,30.07,ESE,112,0.0,0.0,83,0.02,,BKN013,0.02,VWS V14.01,2013-09-04 19:40:00,
2013-09-04 12:45:00,66.3,60.7,30.07,SE,135,0.0,0.0,82,0.02,,BKN013,0.02,VWS V14.01,2013-09-04 19:45:00,
2013-09-04 12:50:00,66.5,61.2,30.08,SE,135,0.0,0.0,83,0.02,,BKN013,0.02,VWS V14.01,2013-09-04 19:50:00,
2013-09-04 12:55:00,66.5,61.2,30.08,ESE,112,0.0,0.0,83,0.02,,BKN013,0.02,VWS V14.01,2013-09-04 19:55:00,
2013-09-04 13:00:00,66.7,61.4,30.08,ESE,112,0.0,0.0,83,0.02,,BKN013,0.02,VWS V14.01,2013-09-04 20:00:00,
2013-09-04 13:05:00,66.5,60.8,30.08,ESE,112,0.0,0.0,82,0.00,,BKN013,0.02,VWS V14.01,2013-09-04 20:05:00,
2013-09-04 13:10:00,66.7,61.0,30.08,ESE,112,0.0,0.0,82,0.00,,BKN013,0.02,VWS V14.01,2013-09-04 20:10:00,
2013-09-04 13:15:00,66.9,61.2,30.08,ESE,112,0.0,0.0,82,0.00,,BKN013,0.02,VWS V14.01,2013-09-04 20:15:00,
2013-09-04 13:20:00,66.9,61.2,30.08,ESE,112,0.0,0.0,82,0.00,,BKN013,0.02,VWS V14.01,2013-09-04 20:20:00,
2013-09-04 13:25:00,66.9,61.2,30.07,ESE,112,0.0,0.0,82,0.00,,BKN013,0.02,VWS V14.01,2013-09-04 20:25:00,
2013-09-04 13:30:00,66.9,61.2,30.08,ESE,112,0.0,0.0,82,0.00,,BKN013,0.02,VWS V14.01,2013-09-04 20:30:00,
2013-09-04 13:35:00,67.1,61.1,30.08,ESE,112,0.0,0.0,81,0.00,,BKN013,0.02,VWS V14.01,2013-09-04 20:35:00,
2013-09-04 13:40:00,67.6,61.6,30.08,ESE,112,0.0,0.0,81,0.00,,BKN013,0.02,VWS V14.01,2013-09-04 20:40:00,
2013-09-04 13:45:00,68.7,62.6,30.08,ESE,112,0.0,0.0,81,0.00,,BKN013,0.02,VWS V14.01,2013-09-04 20:45:00,
2013-09-04 13:50:00,69.0,62.6,30.08,ESE,112,0.0,0.0,80,0.00,,BKN013,0.02,VWS V14.01,2013-09-04 20:50:00,
2013-09-04 13:55:00,69.2,62.4,30.08,ESE,112,0.0,0.0,79,0.00,,BKN013,0.02,VWS V14.01,2013-09-04 20:55:00,
2013-09-04 14:00:00,69.4,62.2,30.08,ESE,112,0.0,0.0,78,0.00,,OVC015,0.02,VWS V14.01,2013-09-04 21:00:00,
2013-09-04 14:05:00,70.1,62.9,30.08,SE,135,0.0,0.0,78,0.00,,OVC015,0.02,VWS V14.01,2013-09-04 21:05:00,
2013-09-04 14:10:00,70.3,62.4,30.08,SSE,158,0.0,0.0,76,0.00,,OVC015,0.02,VWS V14.01,2013-09-04 21:10:00,
2013-09-04 14:15:00,70.1,62.2,30.08,SSE,158,0.0,0.0,76,0.00,,OVC015,0.02,VWS V14.01,2013-09-04 21:15:00,
2013-09-04 14:20:00,69.9,62.0,30.08,SSE,158,0.0,0.0,76,0.00,,OVC015,0.02,VWS V14.01,2013-09-04 21:20:00,
2013-09-04 14:25:00,69.6,61.7,30.08,SE,135,0.0,0.0,76,0.00,,OVC015,0.02,VWS V14.01,2013-09-04 21:25:00,
2013-09-04 14:30:00,69.2,61.7,30.08,East,90,0.0,0.0,77,0.00,,OVC015,0.02,VWS V14.01,2013-09-04 21:30:00,
2013-09-04 14:35:00,69.0,61.5,30.08,East,90,0.0,0.0,77,0.00,,OVC015,0.02,VWS V14.01,2013-09-04 21:35:00,
2013-09-04 14:40:00,69.0,61.5,30.07,ENE,68,0.0,0.0,77,0.00,,OVC015,0.02,VWS V14.01,2013-09-04 21:40:00,
2013-09-04 14:45:00,68.7,61.2,30.07,ENE,68,0.0,0.0,77,0.00,,OVC015,0.02,VWS V14.01,2013-09-04 21:45:00,
2013-09-04 14:50:00,68.5,61.4,30.07,ENE,68,0.0,0.0,78,0.00,,OVC015,0.02,VWS V14.01,2013-09-04 21:50:00,
2013-09-04 14:55:00,68.5,61.7,30.07,ENE,68,0.0,0.0,79,0.00,,OVC015,0.02,VWS V14.01,2013-09-04 21:55:00,
2013-09-04 15:00:00,68.5,61.7,30.07,ENE,68,0.0,0.0,79,0.00,,OVC015,0.02,VWS V14.01,2013-09-04 22:00:00,
2013-09-04 15:05:00,68.5,61.4,30.07,ENE,68,0.0,0.0,78,0.00,,OVC015,0.02,VWS V14.01,2013-09-04 22:05:00,
2013-09-04 15:10:00,68.5,61.7,30.06,ENE,68,0.0,0.0,79,0.00,,OVC015,0.02,VWS V14.01,2013-09-04 22:10:00,
2013-09-04 15:15:00,68.9,62.1,30.06,SSE,158,0.0,0.0,79,0.00,,OVC015,0.02,VWS V14.01,2013-09-04 22:15:00,
2013-09-04 15:20:00,69.0,61.9,30.06,ESE,112,0.0,0.0,78,0.00,,OVC015,0.02,VWS V14.01,2013-09-04 22:20:00,
2013-09-04 15:25:00,69.0,61.5,30.06,ENE,68,0.0,0.0,77,0.00,,OVC015,0.02,VWS V14.01,2013-09-04 22:25:00,
2013-09-04 15:30:00,69.2,61.3,30.06,ENE,68,0.0,0.0,76,0.00,,OVC015,0.02,VWS V14.01,2013-09-04 22:30:00,
2013-09-04 15:35:00,69.2,61.7,30.06,East,90,0.0,0.0,77,0.00,,OVC015,0.02,VWS V14.01,2013-09-04 22:35:00,
2013-09-04 15:40:00,69.4,61.9,30.06,East,90,0.0,0.0,77,0.00,,OVC015,0.02,VWS V14.01,2013-09-04 22:40:00,
2013-09-04 15:45:00,69.2,61.7,30.05,East,90,0.0,0.0,77,0.00,,OVC015,0.02,VWS V14.01,2013-09-04 22:45:00,
2013-09-04 15:50:00,69.2,61.7,30.05,East,90,0.0,0.0,77,0.00,,OVC015,0.02,VWS V14.01,2013-09-04 22:50:00,
2013-09-04 15:55:00,69.0,61.5,30.06,ENE,68,0.0,0.0,77,0.00,,OVC015,0.02,VWS V14.01,2013-09-04 22:55:00,
2013-09-04 16:00:00,69.0,61.5,30.06,East,90,0.0,0.0,77,0.00,,FEW090,0.02,VWS V14.01,2013-09-04 23:00:00,
2013-09-04 16:05:00,69.0,61.5,30.06,ESE,112,0.0,0.0,77,0.00,,FEW090,0.02,VWS V14.01,2013-09-04 23:05:00,
2013-09-04 16:10:00,69.0,61.5,30.06,West,270,0.0,0.0,77,0.00,,FEW090,0.02,VWS V14.01,2013-09-04 23:10:00,
2013-09-04 16:15:00,68.7,61.2,30.06,WSW,248,0.0,0.0,77,0.00,,FEW090,0.02,VWS V14.01,2013-09-04 23:15:00,
2013-09-04 16:20:00,68.5,61.0,30.06,WSW,248,0.0,0.0,77,0.00,,FEW090,0.02,VWS V14.01,2013-09-04 23:20:00,
2013-09-04 16:25:00,68.3,60.8,30.06,West,270,0.0,0.0,77,0.00,,FEW090,0.02,VWS V14.01,2013-09-04 23:25:00,
2013-09-04 16:30:00,68.1,60.3,30.06,WSW,248,0.0,0.0,76,0.00,,FEW090,0.02,VWS V14.01,2013-09-04 23:30:00,
2013-09-04 16:35:00,68.1,60.6,30.06,SW,225,0.0,0.0,77,0.00,,FEW090,0.02,VWS V14.01,2013-09-04 23:35:00,
2013-09-04 16:40:00,68.0,60.5,30.06,SSW,202,0.0,0.0,77,0.00,,FEW090,0.02,VWS V14.01,2013-09-04 23:40:00,
2013-09-04 16:45:00,68.0,60.2,30.06,South,180,0.0,0.0,76,0.00,,FEW090,0.02,VWS V14.01,2013-09-04 23:45:00,
2013-09-04 16:50:00,68.1,60.6,30.06,South,180,0.0,0.0,77,0.00,,FEW090,0.02,VWS V14.01,2013-09-04 23:50:00,
2013-09-04 16:55:00,68.0,60.2,30.07,ENE,68,0.0,0.0,76,0.00,,FEW090,0.02,VWS V14.01,2013-09-04 23:55:00,
2013-09-04 17:00:00,67.8,60.3,30.06,ENE,68,0.0,0.0,77,0.00,,FEW090,0.02,VWS V14.01,2013-09-05 00:00:00,
2013-09-04 17:05:00,67.8,60.7,30.06,SE,135,0.0,0.0,78,0.00,,FEW090,0.02,VWS V14.01,2013-09-05 00:05:00,
2013-09-04 17:10:00,68.0,60.5,30.06,SSE,158,0.0,0.0,77,0.00,,FEW090,0.02,VWS V14.01,2013-09-05 00:10:00,
2013-09-04 17:15:00,68.1,60.3,30.07,SSE,158,0.0,0.0,76,0.00,,FEW090,0.02,VWS V14.01,2013-09-05 00:15:00,
2013-09-04 17:20:00,68.1,60.6,30.06,SSE,158,0.0,0.0,77,0.00,,FEW090,0.02,VWS V14.01,2013-09-05 00:20:00,
2013-09-04 17:25:00,68.1,60.6,30.06,SSE,158,0.0,0.0,77,0.00,,FEW090,0.02,VWS V14.01,2013-09-05 00:25:00,
2013-09-04 17:30:00,68.1,60.3,30.06,SSE,158,0.0,0.0,76,0.00,,FEW090,0.02,VWS V14.01,2013-09-05 00:30:00,
2013-09-04 17:35:00,68.1,60.3,30.06,SSE,158,0.0,0.0,76,0.00,,FEW090,0.02,VWS V14.01,2013-09-05 00:35:00,
2013-09-04 17:40:00,68.1,60.3,30.06,SSE,158,0.0,0.0,76,0.00,,FEW090,0.02,VWS V14.01,2013-09-05 00:40:00,
2013-09-04 17:45:00,68.1,60.3,30.06,SSE,158,0.0,0.0,76,0.00,,FEW090,0.02,VWS V14.01,2013-09-05 00:45:00,
2013-09-04 17:50:00,68.1,60.3,30.06,SSE,158,0.0,0.0,76,0.00,,FEW090,0.02,VWS V14.01,2013-09-05 00:50:00,
2013-09-04 17:55:00,68.1,60.3,30.06,SSE,158,0.0,0.0,76,0.00,,FEW090,0.02,VWS V14.01,2013-09-05 00:55:00,
2013-09-04 18:01:00,68.1,60.3,30.06,SSE,158,0.0,0.0,76,0.00,,BKN029,0.02,VWS V14.01,2013-09-05 01:01:00,
2013-09-04 18:06:00,68.1,60.3,30.06,SSE,158,0.0,0.0,76,0.00,,BKN029,0.02,VWS V14.01,2013-09-05 01:06:00,
2013-09-04 18:11:00,68.1,60.3,30.06,SSE,158,0.0,0.0,76,0.00,,BKN029,0.02,VWS V14.01,2013-09-05 01:11:00,
2013-09-04 18:16:00,68.1,60.3,30.06,SSE,158,0.0,0.0,76,0.00,,BKN029,0.02,VWS V14.01,2013-09-05 01:16:00,
2013-09-04 18:21:00,68.1,60.3,30.06,SSE,158,0.0,0.0,76,0.00,,BKN029,0.02,VWS V14.01,2013-09-05 01:21:00,
2013-09-04 18:26:00,68.1,60.3,30.06,SSE,158,0.0,0.0,76,0.00,,BKN029,0.02,VWS V14.01,2013-09-05 01:26:00,
2013-09-04 18:31:00,68.1,60.3,30.06,SSE,158,0.0,0.0,76,0.00,,BKN029,0.02,VWS V14.01,2013-09-05 01:31:00,
2013-09-04 18:36:00,68.1,60.3,30.06,SSE,158,0.0,0.0,76,0.00,,BKN029,0.02,VWS V14.01,2013-09-05 01:36:00,
2013-09-04 18:41:00,68.1,60.3,30.06,SSE,158,0.0,0.0,76,0.00,,BKN029,0.02,VWS V14.01,2013-09-05 01:41:00,
2013-09-04 18:46:00,68.1,60.3,30.06,SSE,158,0.0,0.0,76,0.00,,BKN029,0.02,VWS V14.01,2013-09-05 01:46:00,
2013-09-04 18:51:00,68.1,60.3,30.06,SSE,158,0.0,0.0,76,0.00,,BKN029,0.02,VWS V14.01,2013-09-05 01:51:00,
2013-09-04 18:56:00,68.1,60.3,30.06,SSE,158,0.0,0.0,76,0.00,,BKN029,0.02,VWS V14.01,2013-09-05 01:56:00,
2013-09-04 19:01:00,68.1,60.3,30.06,SSE,158,0.0,0.0,76,0.00,,BKN029,0.02,VWS V14.01,2013-09-05 02:01:00,
2013-09-04 19:07:00,68.1,60.3,30.06,SSE,158,0.0,0.0,76,0.00,,BKN029,0.02,VWS V14.01,2013-09-05 02:07:00,
2013-09-04 19:12:00,68.1,60.3,30.06,SSE,158,0.0,0.0,76,0.00,,BKN029,0.02,VWS V14.01,2013-09-05 02:12:00,
2013-09-04 19:17:00,68.1,60.3,30.06,SSE,158,0.0,0.0,76,0.00,,BKN029,0.02,VWS V14.01,2013-09-05 02:17:00,
2013-09-04 19:22:00,68.1,60.3,30.06,SSE,158,0.0,0.0,76,0.00,,BKN029,0.02,VWS V14.01,2013-09-05 02:22:00,
2013-09-04 19:27:00,68.1,60.3,30.06,SSE,158,0.0,0.0,76,0.00,,BKN029,0.02,VWS V14.01,2013-09-05 02:27:00,
2013-09-04 19:32:00,68.1,60.3,30.06,SSE,158,0.0,0.0,76,0.00,,BKN029,0.02,VWS V14.01,2013-09-05 02:32:00,
2013-09-04 19:37:00,68.1,60.3,30.06,SSE,158,0.0,0.0,76,0.00,,BKN029,0.02,VWS V14.01,2013-09-05 02:37:00,
2013-09-04 19:42:00,68.1,60.3,30.06,SSE,158,0.0,0.0,76,0.00,,BKN029,0.02,VWS V14.01,2013-09-05 02:42:00,
2013-09-04 19:47:00,68.1,60.3,30.06,SSE,158,0.0,0.0,76,0.00,,BKN029,0.02,VWS V14.01,2013-09-05 02:47:00,
2013-09-04 19:52:00,68.1,60.3,30.06,SSE,158,0.0,0.0,76,0.00,,BKN029,0.02,VWS V14.01,2013-09-05 02:52:00,
2013-09-04 19:57:00,68.1,60.3,30.06,SSE,158,0.0,0.0,76,0.00,,BKN029,0.02,VWS V14.01,2013-09-05 02:57:00,
2013-09-04 20:02:00,68.1,60.3,30.06,SSE,158,0.0,0.0,76,0.00,,FEW090,0.02,VWS V14.01,2013-09-05 03:02:00,
2013-09-04 20:08:00,68.1,60.3,30.06,SSE,158,0.0,0.0,76,0.00,,FEW090,0.02,VWS V14.01,2013-09-05 03:08:00,
2013-09-04 20:13:00,68.1,60.3,30.06,SSE,158,0.0,0.0,76,0.00,,FEW090,0.02,VWS V14.01,2013-09-05 03:13:00,
2013-09-04 20:18:00,68.1,60.3,30.06,SSE,158,0.0,0.0,76,0.00,,FEW090,0.02,VWS V14.01,2013-09-05 03:18:00,
2013-09-04 20:23:00,68.1,60.3,30.06,SSE,158,0.0,0.0,76,0.00,,FEW090,0.02,VWS V14.01,2013-09-05 03:23:00,
2013-09-04 20:28:00,68.1,60.3,30.06,SSE,158,0.0,0.0,76,0.00,,FEW090,0.02,VWS V14.01,2013-09-05 03:28:00,
2013-09-04 20:33:00,68.1,60.3,30.06,SSE,158,0.0,0.0,76,0.00,,FEW090,0.02,VWS V14.01,2013-09-05 03:33:00,
2013-09-04 20:38:00,68.1,60.3,30.06,SSE,158,0.0,0.0,76,0.00,,FEW090,0.02,VWS V14.01,2013-09-05 03:38:00,
2013-09-04 20:43:00,68.1,60.3,30.06,SSE,158,0.0,0.0,76,0.00,,FEW090,0.02,VWS V14.01,2013-09-05 03:43:00,
2013-09-04 20:48:00,68.1,60.3,30.06,SSE,158,0.0,0.0,76,0.00,,FEW090,0.02,VWS V14.01,2013-09-05 03:48:00,
2013-09-04 20:54:00,68.1,60.3,30.06,SSE,158,0.0,0.0,76,0.00,,FEW090,0.02,VWS V14.01,2013-09-05 03:54:00,
2013-09-04 20:59:00,68.1,60.3,30.06,SSE,158,0.0,0.0,76,0.00,,FEW090,0.02,VWS V14.01,2013-09-05 03:59:00,
2013-09-04 21:01:00,68.1,60.3,30.06,SSE,158,0.0,0.0,76,0.00,,FEW090,0.02,VWS V14.01,2013-09-05 04:01:00,
2013-09-04 21:03:00,68.1,60.3,30.06,SSE,158,0.0,0.0,76,0.00,,FEW090,0.02,VWS V14.01,2013-09-05 04:03:00,
2013-09-04 21:04:00,68.1,60.3,30.06,SSE,158,0.0,0.0,76,0.00,,FEW090,0.02,VWS V14.01,2013-09-05 04:04:00,
2013-09-04 21:08:00,68.1,60.3,30.06,SSE,158,0.0,0.0,76,0.00,,FEW090,0.02,VWS V14.01,2013-09-05 04:08:00,
2013-09-04 21:13:00,68.1,60.3,30.06,SSE,158,0.0,0.0,76,0.00,,FEW090,0.02,VWS V14.01,2013-09-05 04:13:00,
2013-09-04 21:19:00,68.1,60.3,30.06,SSE,158,0.0,0.0,76,0.00,,FEW090,0.02,VWS V14.01,2013-09-05 04:19:00,
2013-09-04 21:24:00,68.1,60.3,30.06,SSE,158,0.0,0.0,76,0.00,,FEW090,0.02,VWS V14.01,2013-09-05 04:24:00,
2013-09-04 21:29:00,68.1,60.3,30.06,SSE,158,0.0,0.0,76,0.00,,FEW090,0.02,VWS V14.01,2013-09-05 04:29:00,
2013-09-04 21:34:00,68.1,60.3,30.06,SSE,158,0.0,0.0,76,0.00,,FEW090,0.02,VWS V14.01,2013-09-05 04:34:00,
2013-09-04 21:39:00,68.1,60.3,30.06,SSE,158,0.0,0.0,76,0.00,,FEW090,0.02,VWS V14.01,2013-09-05 04:39:00,
2013-09-04 21:44:00,68.1,60.3,30.06,SSE,158,0.0,0.0,76,0.00,,FEW090,0.02,VWS V14.01,2013-09-05 04:44:00,
2013-09-04 21:49:00,68.1,60.3,30.06,SSE,158,0.0,0.0,76,0.00,,FEW090,0.02,VWS V14.01,2013-09-05 04:49:00,
2013-09-04 21:54:00,68.1,60.3,30.06,SSE,158,0.0,0.0,76,0.00,,FEW090,0.02,VWS V14.01,2013-09-05 04:54:00,
2013-09-04 21:59:00,68.1,60.3,30.06,SSE,158,0.0,0.0,76,0.00,,FEW090,0.02,VWS V14.01,2013-09-05 04:59:00,
2013-09-04 22:04:00,68.1,60.3,30.06,SSE,158,0.0,0.0,76,0.00,,BKN025,0.02,VWS V14.01,2013-09-05 05:04:00,
2013-09-04 22:09:00,68.1,60.3,30.06,SSE,158,0.0,0.0,76,0.00,,BKN025,0.02,VWS V14.01,2013-09-05 05:09:00,
2013-09-04 22:14:00,68.1,60.3,30.06,SSE,158,0.0,0.0,76,0.00,,BKN025,0.02,VWS V14.01,2013-09-05 05:14:00,
2013-09-04 22:19:00,68.1,60.3,30.06,SSE,158,0.0,0.0,76,0.00,,BKN025,0.02,VWS V14.01,2013-09-05 05:19:00,
2013-09-04 22:25:00,68.1,60.3,30.06,SSE,158,0.0,0.0,76,0.00,,BKN025,0.02,VWS V14.01,2013-09-05 05:25:00,
2013-09-04 22:30:00,68.1,60.3,30.06,SSE,158,0.0,0.0,76,0.00,,BKN025,0.02,VWS V14.01,2013-09-05 05:30:00,
2013-09-04 22:35:00,68.1,60.3,30.06,SSE,158,0.0,0.0,76,0.00,,BKN025,0.02,VWS V14.01,2013-09-05 05:35:00,
2013-09-04 22:40:00,68.1,60.3,30.06,SSE,158,0.0,0.0,76,0.00,,BKN025,0.02,VWS V14.01,2013-09-05 05:40:00,
2013-09-04 22:45:00,68.1,60.3,30.06,SSE,158,0.0,0.0,76,0.00,,BKN025,0.02,VWS V14.01,2013-09-05 05:45:00,
2013-09-04 22:50:00,68.1,60.3,30.06,SSE,158,0.0,0.0,76,0.00,,BKN025,0.02,VWS V14.01,2013-09-05 05:50:00,
2013-09-04 22:55:00,68.1,60.3,30.06,SSE,158,0.0,0.0,76,0.00,,BKN025,0.02,VWS V14.01,2013-09-05 05:55:00,
2013-09-04 23:00:00,68.1,60.3,30.06,SSE,158,0.0,0.0,76,0.00,,BKN025,0.02,VWS V14.01,2013-09-05 06:00:00,
2013-09-04 23:05:00,68.1,60.3,30.06,SSE,158,0.0,0.0,76,0.00,,BKN025,0.02,VWS V14.01,2013-09-05 06:05:00,
2013-09-04 23:10:00,68.1,60.3,30.06,SSE,158,0.0,0.0,76,0.00,,BKN025,0.02,VWS V14.01,2013-09-05 06:10:00,
2013-09-04 23:15:00,68.1,60.3,30.06,SSE,158,0.0,0.0,76,0.00,,BKN025,0.02,VWS V14.01,2013-09-05 06:15:00,
2013-09-04 23:20:00,68.1,60.3,30.06,SSE,158,0.0,0.0,76,0.00,,BKN025,0.02,VWS V14.01,2013-09-05 06:20:00,
2013-09-04 23:25:00,68.1,60.3,30.06,SSE,158,0.0,0.0,76,0.00,,BKN025,0.02,VWS V14.01,2013-09-05 06:25:00,
2013-09-04 23:30:00,68.1,60.3,30.06,SSE,158,0.0,0.0,76,0.00,,BKN025,0.02,VWS V14.01,2013-09-05 06:30:00,
2013-09-04 23:36:00,68.1,60.3,30.06,SSE,158,0.0,0.0,76,0.00,,BKN025,0.02,VWS V14.01,2013-09-05 06:36:00,
2013-09-04 23:41:00,68.1,60.3,30.06,SSE,158,0.0,0.0,76,0.00,,BKN025,0.02,VWS V14.01,2013-09-05 06:41:00,
2013-09-04 23:46:00,68.1,60.3,30.06,SSE,158,0.0,0.0,76,0.00,,BKN025,0.02,VWS V14.01,2013-09-05 06:46:00,
2013-09-04 23:51:00,68.1,60.3,30.06,SSE,158,0.0,0.0,76,0.00,,BKN025,0.02,VWS V14.01,2013-09-05 06:51:00,
2013-09-04 23:56:00,68.1,60.3,30.06,SSE,158,0.0,0.0,76,0.00,,BKN025,0.02,VWS V14.01,2013-09-05 06:56:00,